Regional Weather Roundup
Issued by NWS

Home | Current Version | Previous Version | Graphics & Text | Print | Product List | Glossary On
Versions: 1 2 3 4 5 6 7 8 9 10 11 12 13 14 15 16 17 18 19 20 21 22 23 24 25 26 27 28 29 30 31 32 33 34 35 36 37 38 39 40 41 42 43 44 45 46 47 48 49 50
000
ASUS43 KOAX 212210
RWRNE

WEATHER ROUNDUP FOR NEBRASKA
NATIONAL WEATHER SERVICE OMAHA NE
500 PM CDT MON JUL 21 2014

NOTES: SATELLITE DATA IS BEING USED TO AUGMENT CLOUD COVER ABOVE
       12000 FEET.
       "FAIR" INDICATES FEW OR NO CLOUDS BELOW 12,000 FEET WITH NO
       SIGNIFICANT WEATHER AND/OR OBSTRUCTIONS TO VISIBILITY.

  * THESE STATIONS DO NOT REPORT WEATHER SUCH AS RAIN...SNOW OR FOG.

NEZ001>004-019>022-054>056-212300-
NEBRASKA PANHANDLE

CITY           SKY/WX    TMP DP  RH WIND       PRES   REMARKS
SCOTTSBLUFF    MOSUNNY  101  47  16 NW12      29.98F HX  97
ALLIANCE       MOSUNNY  100  41  13 NW14G22   29.98F HX  95
CHADRON        SUNNY    104  40  11 W16G29    29.89F HX  98
KIMBALL        PTSUNNY   97  40  13 SW12G17   30.06S HX  92
SIDNEY         PTSUNNY  101  37  11 W12       30.03F HX  95
$$

NEZ057>060-069>072-079>082-212300-
SOUTHWEST NEBRASKA

CITY           SKY/WX    TMP DP  RH WIND       PRES   REMARKS
NORTH PLATTE   CLOUDY    97  60  29 SW6       29.91F HX  97
IMPERIAL       PTSUNNY  100  43  14 CALM      29.96F HX  96
LEXINGTON      PTSUNNY  101  61  26 SW6       29.90F HX 102
MCCOOK         PTSUNNY   96  68  39 N3        29.92F HX 101
OGALLALA       PTSUNNY   98  52  21 SE7       29.95F HX  96
$$

NEZ005>010-023>029-035>040-094-212300-
NORTH CENTRAL NEBRASKA

CITY           SKY/WX    TMP DP  RH WIND       PRES   REMARKS
VALENTINE      MOSUNNY  105  51  16 W16       29.84S HX 102
AINSWORTH      MOSUNNY  100  52  19 SW7       29.85S HX  97
BROKEN BOW     PTSUNNY   91  68  46 SW7       29.90S HX  95
O`NEILL        MOSUNNY  102  51  17 SW13      29.82S HX  99
ORD            PTSUNNY   92  72  51 S8        29.85  HX  99
THEDFORD       SUNNY    104  51  16 SW13G18   29.89F HX 101
$$

NEZ041-046>049-061>064-073>077-083>087-212300-
SOUTH CENTRAL NEBRASKA

CITY           SKY/WX    TMP DP  RH WIND       PRES   REMARKS
GRAND ISLAND   PTSUNNY   97  72  44 SW13      29.87S HX 105
AURORA         PTSUNNY   95  75  52 SW7       29.87S HX 107
HASTINGS       PTSUNNY   94  72  48 CALM      29.89S HX 102
HEBRON         PTSUNNY  101  67  33 SW8       29.87S HX 106
HOLDREGE       MOSUNNY   99  64  31 W8        29.90F HX 102
KEARNEY *      PTSUNNY   99  72  41 S12       29.89F HX 107
YORK           MOSUNNY   95  81  63 S9        29.87S HX 115
$$

NEZ011>018-030>034-042>045-212300-
NORTHEAST NEBRASKA

CITY           SKY/WX    TMP DP  RH WIND       PRES   REMARKS
NORFOLK        PTSUNNY   90  76  63 S10       29.81F HX 101
ALBION         CLOUDY    90  75  62 S12       29.85R HX 100
BLAIR          SUNNY     92  69  47 S13G22    29.86S HX  97
COLUMBUS *     PTSUNNY   91  75  59 S9        29.85F HX 102
FREMONT        MOSUNNY   93  75  55 S7        29.85S HX 104
TEKAMAH        MOSUNNY   97  76  50 S14       29.82S HX 110
WAYNE          PTSUNNY   94  80  63 S15       29.82F HX 112
$$

NEZ050>053-065>068-078-088>093-212300-
SOUTHEAST NEBRASKA

CITY           SKY/WX    TMP DP  RH WIND       PRES   REMARKS
LINCOLN        MOSUNNY  100  74  43 SW15      29.85F HX 112
OMAHA EPPLEY   MOSUNNY   96  73  47 S23G29    29.84S HX 105
BEATRICE       MOSUNNY   95  75  51 S12G17    29.87F HX 107
FALLS CITY     MOSUNNY   95  77  55 S13       29.88F HX 109
NEBRASKA CITY  SUNNY     96  74  50 S12G20    29.88S HX 107
PLATTSMOUTH    SUNNY     95  75  52 S13G20    29.87S HX 106
$$

NEZ044-045-051>053-067-212300-
OMAHA AREA

CITY           SKY/WX    TMP DP  RH WIND       PRES   REMARKS
OMAHA EPPLEY   MOSUNNY   96  73  47 S23G29    29.84S HX 105
BLAIR          SUNNY     92  69  47 S13G22    29.86S HX  97
FREMONT        MOSUNNY   93  75  55 S7        29.85S HX 104
MILLARD        SUNNY     96  77  54 S13G18    29.84F HX 110
OFFUTT AFB     SUNNY     96  77  53 S14       29.85S HX 111
PLATTSMOUTH    SUNNY     95  75  52 S13G20    29.87S HX 106
WAHOO          FAIR      94  73  50 S8        29.84F HX 102
$$



USA.gov is the U.S. government's official web portal to all federal, state and local government web resources and services.